RH
44 42 44 47 54 54 57 73 86 94 92 80 74 61 59 50 42 37 30 24 23 25 25 24 22 19 16 18 16 14 14 18 23 33 26 24 27 33 28 22 20 22 23
50 48 50 57 61 56 57 80 88 86 80 73 70 64 47 35 29 24 24 25 26 24 24 23 20 18 15 15 16 18 17 18 28 36 54 60 41 34 17 23 21 28 18
51 56 72 73 70 70 70 86 78 76 78 69 61 50 33 28 25 24 25 25 25 24 23 22 19 16 15 16 18 19 21 25 21 39 32 47 59 49 30 20 30 21 35
51 61 81 82 81 79 82 78 74 75 72 64 57 44 31 27 26 26 26 25 24 23 22 19 17 16 16 16 18 18 20 23 29 24 24 26 37 59 58 34 28 34 34
52 60 74 77 78 81 82 72 71 71 65 61 58 39 29 28 29 28 27 26 24 21 19 17 16 15 16 17 16 17 20 22 25 29 31 31 30 31 62 44 41 38 34
56 68 77 74 77 77 78 70 68 65 59 57 48 38 30 32 30 28 26 25 23 21 19 17 16 15 15 15 16 19 21 24 26 27 28 32 42 46 48 52 45 42 34
66 78 78 78 75 74 72 67 65 58 52 49 40 31 34 35 30 28 26 25 23 22 20 18 16 16 15 16 19 21 24 26 28 28 30 31 34 35 40 46 46 45 42
62 72 74 72 70 69 68 64 60 54 49 42 36 37 38 37 31 28 26 24 22 21 19 18 17 16 16 18 22 25 27 28 29 30 32 34 34 42 48 52 56 61 48
66 71 72 66 65 63 61 59 56 52 47 41 42 42 37 31 28 25 23 23 22 20 18 17 16 16 18 22 26 28 28 29 30 33 34 36 43 50 53 58 61 66 77
68 71 67 64 61 58 55 54 52 49 46 43 40 35 30 26 25 23 23 22 21 19 17 16 16 18 22 26 28 29 28 30 33 36 38 42 49 53 56 58 64 72 75
71 71 65 64 61 54 51 48 47 44 41 37 32 28 26 25 23 23 22 22 20 18 16 16 19 22 26 28 29 28 30 36 38 40 43 47 51 54 56 58 69 76 77
72 68 68 70 64 55 48 44 40 36 33 30 27 26 24 23 23 23 23 21 20 18 18 20 23 27 29 30 30 32 39 41 43 43 45 48 51 56 58 61 71 76 77
76 80 74 68 66 59 49 42 37 33 29 27 25 24 23 23 24 24 23 22 20 20 21 24 29 31 32 31 30 43 44 44 44 43 45 47 54 57 58 64 69 74 77
75 77 74 74 68 59 49 40 34 30 26 25 24 24 23 24 26 25 25 22 21 22 25 30 33 32 32 30 44 48 48 46 45 44 46 50 55 60 65 67 67 73 71
78 76 76 74 68 59 48 40 33 29 27 26 25 25 25 26 27 27 24 22 22 26 32 34 32 32 31 34 50 52 53 55 54 56 56 56 61 65 62 62 65 63 67
72 74 71 71 68 58 46 36 32 28 27 26 27 26 27 28 28 26 23 23 26 33 35 34 34 33 32 40 53 58 64 63 63 63 63 63 64 65 61 62 62 65 70
70 72 71 69 67 53 42 34 30 28 27 28 28 29 28 29 27 25 24 25 33 36 36 35 35 34 36 51 54 60 66 64 63 63 63 64 66 67 72 73 78 92 98
70 71 72 69 58 47 40 33 30 28 29 30 30 30 29 27 26 25 26 33 37 37 37 36 37 39 42 54 56 62 65 64 64 62 64 68 72 78 72 92 94 82 69
72 71 67 62 52 44 37 32 30 31 32 32 31 29 28 26 27 28 34 37 38 38 37 39 40 46 48 53 61 65 64 65 67 69 72 75 84 76 88 76 70 68 68
66 64 58 53 46 40 35 32 32 32 32 31 29 28 27 28 29 33 38 39 39 39 41 41 46 50 54 56 65 66 66 70 72 76 81 85 75 74 78 63 67 75 73
56 53 50 47 41 36 34 33 33 33 31 29 29 28 29 30 34 37 39 40 40 42 44 49 52 57 58 59 67 68 67 69 74 71 68 76 85 67 64 62 70 74 86
50 47 45 43 38 36 34 35 35 31 29 29 29 29 30 34 35 36 40 42 46 48 54 60 62 61 61 63 69 70 67 66 63 76 81 95 77 67 65 69 72 73 76
48 45 44 40 36 34 36 36 32 30 30 29 29 30 34 37 38 42 43 44 49 57 64 67 65 67 67 67 70 73 69 64 74 80 74 80 69 67 70 75 74 74 81
48 45 41 41 38 36 37 37 31 30 29 30 30 31 31 41 44 45 46 52 59 64 69 69 69 71 72 72 69 71 68 83 76 75 77 68 67 70 75 78 77 80 83
48 42 42 40 39 38 36 33 31 29 29 29 29 31 40 44 46 48 53 58 61 65 66 67 67 71 74 72 67 66 79 67 72 69 71 70 74 81 81 81 82 84 88
47 43 40 38 38 36 35 32 30 29 28 27 31 43 46 48 50 54 54 52 65 67 66 65 67 69 70 68 68 74 68 70 71 74 73 79 82 85 86 88 90 91 91
Wind_Speed
4 12 14 16 16 16 19 27 30 32 33 29 27 25 25 23 21 19 18 16 13 11 10 9 8 9 10 11 13 12 14 13 22 10 16 5 7 10 7 20 22 19 21
7 8 14 17 19 19 20 26 33 36 33 29 27 27 27 23 23 21 19 15 12 11 9 9 9 9 9 10 12 13 13 11 19 11 4 4 7 3 25 15 22 16 29
12 9 10 19 20 21 24 29 33 35 32 30 29 29 25 25 23 20 19 14 11 10 8 8 8 8 9 10 11 13 15 11 14 10 9 4 3 9 5 23 9 27 15
8 6 8 14 21 23 26 29 34 34 31 32 31 34 27 25 22 20 18 15 10 8 7 6 7 8 8 9 11 12 14 13 12 8 13 9 7 3 5 6 25 11 27
15 14 14 19 25 25 29 32 34 32 32 31 34 34 31 24 23 21 18 14 10 7 6 5 6 7 7 8 10 12 13 14 13 13 13 10 13 8 3 10 10 26 25
10 8 11 19 23 25 29 33 33 31 32 31 32 32 32 29 26 22 17 13 9 7 5 5 6 6 6 8 10 12 13 14 15 16 15 13 5 9 6 6 12 15 23
12 13 13 13 22 28 32 34 34 31 30 29 29 30 28 29 27 23 18 13 9 5 3 4 4 5 7 9 10 13 15 15 17 16 16 15 13 16 15 15 16 10 27
13 16 15 15 20 26 31 31 35 32 28 29 27 26 25 25 22 19 15 10 7 4 2 2 4 6 7 10 12 15 16 16 17 17 18 14 14 18 19 16 19 14 9
14 16 14 17 21 26 30 35 34 31 29 29 26 25 23 22 21 17 13 10 6 3 1 3 5 7 9 12 14 16 18 19 18 19 18 15 18 19 22 20 19 14 10
15 14 12 16 20 27 29 31 32 32 29 28 26 24 22 19 17 15 12 8 5 2 1 4 6 9 11 13 16 17 18 18 19 20 19 19 18 21 22 23 22 20 18
16 14 12 16 23 27 27 28 29 30 28 27 25 23 20 18 15 12 10 6 3 1 4 7 9 11 14 16 17 18 17 19 21 21 20 19 19 21 25 24 22 21 20
14 14 13 17 21 25 27 28 27 28 26 24 23 21 19 16 13 11 7 4 2 3 5 8 10 13 15 17 18 17 19 21 22 23 22 20 20 21 23 24 24 24 25
13 11 12 12 17 21 26 27 26 26 24 23 22 19 17 14 12 9 6 3 2 4 6 9 12 15 16 17 16 19 20 21 22 22 22 23 21 23 25 27 27 25 20
14 13 11 9 15 21 26 27 25 25 24 22 20 18 15 12 10 7 4 2 3 5 8 11 13 14 16 16 18 19 21 22 23 23 23 23 23 25 27 25 25 23 26
13 13 13 11 15 20 24 25 25 24 23 21 18 16 14 11 9 6 3 2 4 7 10 12 14 15 17 18 18 20 21 22 22 21 21 22 22 23 25 27 27 30 28
13 12 12 12 13 19 23 26 26 24 22 20 18 15 13 10 7 4 2 2 6 9 11 13 15 17 19 17 17 18 22 21 23 26 24 23 22 22 25 29 31 31 33
14 14 14 13 17 22 29 27 26 23 20 19 16 14 11 9 5 3 2 5 8 11 14 16 17 19 19 15 17 19 19 22 22 24 25 25 24 27 32 32 32 31 24
12 11 11 16 23 28 26 26 24 22 20 17 15 12 10 7 4 2 3 6 10 13 15 17 19 19 18 17 18 20 20 21 22 24 25 26 29 31 30 31 22 29 26
9 10 18 24 28 29 28 27 24 21 19 16 13 10 7 5 3 3 5 9 12 14 16 18 18 18 18 18 19 21 22 23 24 27 25 24 26 29 31 29 29 27 28
16 19 25 28 30 28 29 27 23 20 17 14 12 8 6 5 3 5 7 10 12 14 17 18 17 16 18 20 19 20 22 22 24 22 21 21 25 30 29 32 28 24 30
20 25 24 23 28 29 27 25 22 18 15 13 10 8 6 5 4 5 9 11 14 16 17 18 17 16 19 21 19 19 23 24 23 23 22 23 24 31 32 30 25 27 31
18 22 24 24 26 25 26 24 20 16 14 11 10 8 6 4 4 8 11 12 14 16 17 17 17 19 21 21 19 20 22 24 26 23 26 24 29 31 28 26 25 28 27
17 21 25 26 22 22 23 23 17 15 13 11 9 6 4 4 7 9 12 15 14 15 18 15 17 20 21 22 21 21 22 25 25 23 27 25 27 25 24 24 25 25 24
16 22 24 21 19 18 17 19 16 13 11 10 7 5 4 5 7 8 10 12 14 16 16 15 17 20 20 21 24 23 25 20 21 25 21 24 22 23 23 23 23 22 22
17 21 21 21 19 18 18 15 13 11 10 8 5 3 4 7 8 10 10 12 13 14 17 19 20 20 18 20 25 25 25 27 26 27 22 20 21 23 23 24 23 24 24
20 20 21 22 19 18 16 13 10 9 8 6 3 3 5 7 8 11 14 11 11 14 15 16 18 20 20 23 24 25 26 27 25 20 18 19 20 21 22 23 26 26 26
Wind_Direction
242 208 192 183 184 180 176 182 179 174 168 159 148 144 142 143 139 138 133 128 122 108 91 76 59 39 28 27 21 14 7 6 1 335 338 309 305 270 316 344 352 339 345
191 195 193 184 186 187 184 182 181 173 166 164 161 157 149 143 137 133 127 122 121 106 92 73 54 36 26 24 23 23 16 12 18 1 327 349 330 318 310 312 333 324 329
198 190 187 188 183 185 183 180 174 169 166 164 159 153 147 140 134 133 126 122 119 106 86 66 50 39 32 32 27 24 24 14 19 34 39 348 310 320 256 310 285 319 320
184 162 169 181 187 181 176 178 173 170 170 168 166 162 156 150 149 142 135 130 121 106 88 69 54 43 38 34 29 21 21 20 19 13 0 352 314 314 320 306 310 314 318
185 182 186 179 180 175 173 174 171 171 172 174 171 169 163 160 151 147 143 135 127 111 92 70 54 43 34 28 18 13 10 10 8 5 348 335 325 288 284 303 315 314 314
182 161 145 164 167 171 172 172 171 171 173 176 176 174 166 160 157 156 150 144 136 118 92 65 48 36 19 12 8 3 0 358 354 349 347 345 329 313 301 293 305 299 309
168 157 159 164 162 168 171 173 173 171 175 178 178 175 173 173 172 167 163 157 147 131 97 52 34 19 11 3 357 357 353 348 345 345 340 335 330 330 323 314 308 304 307
178 170 171 164 160 164 170 169 173 170 173 176 176 177 177 178 177 172 168 163 156 135 84 31 7 1 356 354 352 352 347 341 341 340 337 331 332 332 328 312 311 310 302
180 172 159 158 152 160 167 172 172 168 172 174 175 175 176 174 170 165 164 157 152 133 76 1 351 352 354 353 350 345 343 338 339 335 333 323 325 328 328 318 304 291 306
172 159 152 145 147 161 168 169 170 168 168 170 171 169 167 168 164 159 153 150 145 143 7 345 350 353 354 351 346 341 340 338 337 333 325 319 320 325 327 318 308 288 280
162 153 146 141 141 155 162 161 163 160 160 163 162 161 159 158 155 152 146 146 142 31 352 350 353 352 348 345 342 340 342 334 330 329 322 314 317 322 326 323 310 291 281
150 144 140 134 135 147 157 157 157 156 157 159 157 155 154 153 150 146 140 138 98 12 357 354 351 349 345 340 341 340 336 331 327 327 320 312 312 313 323 322 309 296 291
131 124 131 138 139 146 157 159 158 155 155 155 154 151 151 152 148 142 139 117 44 12 2 353 352 346 341 340 342 338 334 331 328 328 322 312 303 309 320 317 307 296 291
144 139 134 131 138 150 156 158 157 157 155 156 154 152 153 152 147 142 129 76 24 6 0 355 347 346 343 345 344 338 335 332 330 330 327 315 309 314 315 311 303 306 303
151 152 146 143 141 145 155 158 157 158 160 155 154 152 152 150 146 138 110 52 17 8 358 347 346 348 349 348 338 335 336 338 336 336 334 330 321 313 312 310 313 307 302
155 146 145 145 148 146 149 157 159 161 161 155 152 151 151 149 145 133 100 32 13 359 352 355 352 347 344 339 333 334 335 338 335 335 336 334 327 318 314 312 305 304 304
158 156 156 151 143 146 157 159 159 157 156 152 150 150 149 146 142 129 53 17 2 353 353 352 347 341 339 335 331 332 330 334 337 335 332 327 319 315 316 310 301 297 313
149 143 136 127 137 155 157 153 154 153 151 148 145 145 146 142 133 84 33 5 356 353 349 343 341 337 338 334 330 327 327 330 332 329 324 320 318 318 312 312 332 321 319
123 124 131 133 142 151 152 149 149 148 144 141 141 143 145 129 105 65 21 5 348 345 342 341 338 337 337 337 329 328 328 325 321 321 319 312 311 316 319 327 324 319 314
118 121 124 130 137 146 150 146 143 142 139 142 141 134 121 116 85 36 13 354 344 340 339 336 340 339 336 338 330 329 325 318 315 315 314 314 320 321 324 326 324 323 311
110 116 119 122 135 146 148 139 140 137 140 138 131 125 113 88 55 18 356 350 344 337 340 338 338 340 341 339 331 330 327 322 319 321 323 322 322 325 324 322 325 310 320
102 111 111 118 139 144 143 137 135 137 137 133 124 111 99 80 23 356 352 348 344 343 339 335 331 337 342 340 329 328 327 323 326 322 324 320 324 325 324 324 321 323 326
103 112 116 121 132 143 145 137 137 139 132 126 119 109 92 38 5 354 349 347 345 340 336 326 328 328 329 334 331 326 323 325 322 325 320 324 324 326 326 325 325 325 321
111 120 120 120 125 136 138 135 135 135 134 126 115 94 49 5 358 355 348 342 338 336 334 329 326 323 324 327 327 325 324 324 327 325 328 328 327 326 324 323 322 321 322
116 127 126 128 128 132 129 131 134 138 130 121 103 57 10 355 348 344 342 336 336 332 331 330 327 323 321 321 325 326 330 331 331 330 333 328 327 326 325 323 323 324 324
132 129 134 133 132 132 126 127 132 138 128 111 83 27 354 344 337 335 335 345 335 337 333 329 327 325 321 325 328 329 333 331 330 333 327 323 324 322 321 321 321 321 321